Regional Weather Roundup
Issued by NWS

Home | Current Version | Previous Version | Graphics & Text | Print | Product List | Glossary On
Versions: 1 2 3 4 5 6 7 8 9 10 11 12 13 14 15 16 17 18 19 20 21 22 23 24 25 26 27 28 29 30 31 32 33 34 35 36 37 38 39 40 41 42 43 44 45 46 47 48 49 50
000
ASUS43 KMKX 191900
RWRWI

WISCONSIN REGIONAL WEATHER ROUNDUP
NATIONAL WEATHER SERVICE MILWAUKEE/SULLIVAN WI
100 PM CST SUN FEB 19 2017

NOTE: "FAIR" INDICATES FEW OR NO CLOUDS BELOW 12,000 FEET WITH NO
SIGNIFICANT WEATHER AND/OR OBSTRUCTIONS TO VISIBILITY.

WIZ001-002-006>008-014>016-023>028-192000-
NORTHWEST WISCONSIN

CITY           SKY/WX    TMP DP  RH WIND       PRES   REMARKS
SUPERIOR ARPT  CLOUDY    41  32  70 E12       29.98F
ASHLAND        MOSUNNY   45  33  63 N9        29.99F
HAYWARD        MOSUNNY   55  28  35 S9        29.96F
SIREN          MOSUNNY   56  31  39 SE10      29.94F
CUMBERLAND     SUNNY     50  36  57 SE9       29.96F
RICE LAKE      SUNNY     54  36  50 SE9       29.97F
CHETEK         SUNNY     53  37  54 SE7       29.97F
LADYSMITH      MOSUNNY   54  33  44 S7        30.00F
EAU CLAIRE     NOT AVBL
MENOMONIE      SUNNY     56  37  50 SE7       29.97S
NEW RICHMOND   SUNNY     55  38  52 S7        29.95R
OSCEOLA        SUNNY     57  38  48 SE13      29.96S
$$

WIZ003>005-009-010-017-018-192000-
NORTH CENTRAL WISCONSIN

CITY           SKY/WX    TMP DP  RH WIND       PRES   REMARKS
MANITOWISH WTR MOSUNNY   48  29  48 CALM      29.98F
ARBOR VITAE    MOSUNNY   52  31  44 SE3       29.99F
WOODRUFF       MOSUNNY   52  31  44 SE3       29.99F
RHINELANDER    SUNNY     52  28  39 CALM      29.99F
EAGLE RIVER    SUNNY     51  26  38 CALM      30.00F
LAND O LAKES   SUNNY     52  24  34 CALM      30.01F
PHILLIPS       MOSUNNY   55  29  37 CALM      29.97F
TOMAHAWK       MOSUNNY   55  27  34 CALM      30.00F
MEDFORD        MOSUNNY   46  32  59 S8        30.00S
MERRILL        NOT AVBL
$$

WIZ029-030-035-036-043>047-192000-
CENTRAL WISCONSIN

CITY           SKY/WX    TMP DP  RH WIND       PRES   REMARKS
WAUSAU         MOSUNNY   53  30  41 S3        29.99F
MOSINEE        PTSUNNY   50  32  50 S3        30.02F
MARSHFIELD     SUNNY     51  31  46 S7        29.99F
STEVENS POINT  SUNNY     52  29  41 SE5       30.02F
WAUPACA        SUNNY     60  32  35 CALM      30.03S
WAUTOMA        SUNNY     60  34  37 S8        30.02F
WISC RAPIDS    SUNNY     59  32  36 SW5       30.02F
CAMP DOUGLAS   NOT AVBL
$$

WIZ011>013-019>022-031-037>040-048>050-192000-
NORTHEAST WISCONSIN

CITY           SKY/WX    TMP DP  RH WIND       PRES   REMARKS
ANTIGO         SUNNY     42  32  68 NE3       30.01F
SHAWANO        MOSUNNY   54  33  45 E3        30.03S
OCONTO         MOSUNNY   51  31  46 SE7       30.04S
STURGEON BAY   SUNNY     51  32  48 CALM      30.05S
GREEN BAY      MOSUNNY   55  36  48 SE5       30.03F
MANITOWOC      NOT AVBL
APPLETON       MOSUNNY   54  28  37 SE7       30.02F
CLINTONVILLE   PTSUNNY   54  32  43 SW5       30.03S
OSHKOSH        SUNNY     56  37  49 S6        30.03F
$$

WIZ032>034-041-042-053>061-192000-
SOUTHWEST WISCONSIN

CITY           SKY/WX    TMP DP  RH WIND       PRES   REMARKS
LA CROSSE      SUNNY     57  34  41 S8        29.98F
SPARTA         SUNNY     61  31  32 S10       29.99F
VIROQUA        SUNNY     58  38  47 CALM      30.00F
BOSCOBEL       SUNNY     63  39  41 VRB6      30.00F
PRAIRIE DU CHI SUNNY     59  37  44 S3        29.99F
PLATTEVILLE    MOSUNNY   58  44  59 S6        30.02F
$$

WIZ056-057-062-063-064-067-068-192000-
SOUTH CENTRAL WISCONSIN

CITY           SKY/WX    TMP DP  RH WIND       PRES   REMARKS
REEDSBURG      SUNNY     60  33  35 S9        30.01F
BARABOO/DELLS  SUNNY     58  32  38 S8        30.02F
LONE ROCK      NOT AVBL
MINERAL POINT  MOSUNNY   59  43  55 SE8       30.02F
MADISON        PTSUNNY   58  34  40 S6        30.03F
MIDDLETON      SUNNY     62  33  33 SW8       30.03F
WATERTOWN      SUNNY     59  35  40 S6        30.04F
MONROE         SUNNY     61  37  41 SE8       30.03F
JANESVILLE     SUNNY     64  30  27 SE6       30.03F
$$

WIZ051-052-058>065-066-070>072-192000-
SOUTHEAST WISCONSIN

CITY           SKY/WX    TMP DP  RH WIND       PRES   REMARKS
MILWAUKEE      MOSUNNY   57  31  37 E7        30.06F
WAUKESHA       SUNNY     61  28  29 SE6       30.05F
MILWAUKEE/TIMM SUNNY     61  27  27 E6        30.05F
RACINE         SUNNY     57  30  35 E3        30.07S
KENOSHA        SUNNY     59  33  37 E6        30.05S
FOND DU LAC    SUNNY     58  35  42 S8        30.03F
SHEBOYGAN      SUNNY     56  34  43 S5        30.04F
WEST BEND      SUNNY     59  30  33 SE6       30.04S
JUNEAU         SUNNY     57  34  41 S5        30.05F
$$

LSZ147-162-192000-
LAKE SUPERIOR

STATION/POSITION TIME  TEMP    WIND        PRES    WAVE
                       AIR SEA DIR/SP/G            HT/PER
                 (UTC) (F)     (DEG/KT/KT) (MB)    (FT/S)
DEVILS ISLAND    1800   36      50/  9/  9 1017.5R
PORT WING        1840   36      30/ 12/ 15 1015.6S
SAXON HARBOR     1840   36     330/  2/  3 1015.9F
$$

LMZ867-665-643>646-192000-
LAKE MICHIGAN

STATION/POSITION TIME  TEMP    WIND        PRES    WAVE
                       AIR SEA DIR/SP/G            HT/PER
                 (UTC) (F)     (DEG/KT/KT) (MB)    (FT/S)
CHAMBERS ISLAND  1840   44      60/  5/  6 1016.9S
NORTHPORT PIER   1840   40      CALM  /  3 1017.6S
SISTER BAY       1705   48        CALM       N/A
KEWAUNEE LAKESHO 1830   42     120/  4/  6 1017.1S
SHEBOYGAN LAKESH 1800   47      70/  4/  4 1017.7S
PORT WASHINGTON  1840   48      90/  1/  2 1018.6F
MILWAUKEE LAKESH 1830   46      60/  4/  5   N/A
KENOSHA   LAKESH 1800   48      40/  3/  4 1017.9
$$

TC  - TEMPERATURE IN CELSIUS
VSB - VISIBILITY IN STATUTE MILES
WCI - WIND CHILL INDEX
HX  - HEAT INDEX




USA.gov is the U.S. government's official web portal to all federal, state and local government web resources and services.